Temperature
15 16 16 15 15 15 14 14 14 14 14 13 12 11 11 10 10 9 9 9 9 9 9 8 8 8 8 8 8 8 7 7 7 7 7 7 7 7 7 7 7 7 7 7
15 16 15 15 14 14 14 14 14 14 13 12 11 11 10 10 9 9 9 9 9 9 9 8 8 8 8 8 7 7 7 7 7 7 7 7 7 6 7 7 7 7 7 7
14 15 15 14 14 14 14 13 13 13 12 11 11 10 10 10 10 9 9 9 9 9 9 8 8 8 8 7 7 7 7 7 7 7 6 6 6 6 6 6 6 6 7 7
12 14 14 14 14 13 13 13 12 12 11 11 11 10 10 10 10 9 9 9 9 9 8 8 8 7 7 7 7 7 7 7 6 6 6 6 6 6 6 6 6 6 6 6
11 13 14 14 14 13 13 12 12 11 11 10 10 10 9 10 10 10 9 9 9 8 8 8 7 7 7 7 7 7 6 6 6 6 6 6 6 6 6 6 6 6 6 6
12 13 13 13 14 13 13 12 12 11 10 10 10 9 9 9 9 9 9 9 8 8 8 8 7 7 7 7 6 6 6 6 6 6 6 6 6 6 6 6 6 6 6 6
11 12 12 13 13 13 13 12 11 11 11 10 10 9 10 9 9 9 9 8 8 8 8 7 7 7 7 7 6 6 6 6 6 6 6 6 6 6 6 6 6 6 6 6
10 12 12 12 12 12 11 11 11 11 11 10 10 10 9 9 9 9 8 8 8 7 7 7 7 7 7 6 6 6 6 6 6 6 6 6 6 6 6 6 6 6 6 6
10 11 11 12 12 12 12 12 12 11 11 11 10 9 9 9 8 8 8 7 7 7 7 7 7 7 7 6 6 6 6 6 6 6 6 6 6 6 6 6 6 6 6 6
10 11 11 12 12 12 13 12 12 11 11 11 10 9 9 8 8 8 8 7 7 7 7 7 7 7 6 6 6 6 6 6 6 6 6 6 6 6 6 6 6 6 6 6
10 11 12 12 12 12 12 12 11 11 11 10 10 9 9 8 8 8 7 7 7 7 7 7 7 6 6 6 6 6 6 6 6 6 6 6 6 6 6 6 6 6 6 6
10 11 11 12 12 12 12 11 11 11 10 10 10 9 9 8 8 8 7 7 7 7 7 7 6 6 6 6 6 6 6 6 6 6 6 6 6 6 6 6 6 6 6 6
13 13 12 12 12 12 12 11 11 11 10 10 9 9 9 8 8 8 7 7 7 7 7 7 6 6 6 6 6 6 6 6 6 6 6 6 6 6 6 6 6 6 6 6
13 13 12 12 12 12 12 11 11 10 10 10 9 9 8 8 8 7 7 7 7 7 7 7 6 6 6 6 6 6 6 6 6 6 6 6 6 6 6 6 6 6 6 6
13 13 13 13 12 12 11 11 11 10 10 9 9 9 8 8 8 7 7 7 7 7 7 7 7 6 6 6 6 6 6 6 6 6 6 6 6 6 6 6 6 6 6 6
13 13 13 12 12 12 11 11 11 10 10 9 9 9 8 8 8 8 7 7 7 7 7 7 7 6 6 6 6 6 6 6 6 6 6 6 6 6 6 6 6 6 6 6
13 12 12 12 12 12 12 11 11 11 10 10 9 9 8 8 8 8 7 7 7 7 7 7 7 7 6 6 6 6 6 6 6 7 7 7 7 7 7 7 7 7 7 7
14 13 13 13 13 12 12 11 11 11 10 10 9 9 9 8 8 8 8 7 7 7 7 7 7 7 7 7 7 6 6 7 7 7 7 7 7 7 7 7 7 7 7 7
13 13 13 13 13 12 12 12 11 11 11 10 10 9 9 9 8 8 8 8 7 7 7 7 7 7 7 7 7 7 7 7 7 7 7 7 7 7 7 7 7 8 8 8
13 13 13 13 13 12 12 12 12 11 11 11 10 10 9 9 9 8 8 8 8 8 8 7 7 7 7 7 7 7 7 7 7 7 8 8 8 8 8 8 8 8 8 8
13 13 13 13 13 13 12 12 12 12 11 11 10 10 10 9 9 9 8 8 8 8 8 7 7 7 7 7 7 7 7 7 7 8 8 8 8 8 8 8 8 8 8 8
13 13 13 13 13 13 13 12 12 12 11 11 11 10 10 10 9 9 9 9 8 8 8 8 8 8 8 7 7 7 7 8 8 8 8 8 8 8 9 9 9 9 9 9
13 13 13 13 13 13 13 13 12 12 12 11 11 11 10 10 10 9 9 9 9 8 8 8 8 8 8 8 8 8 8 8 8 8 8 8 8 8 9 9 9 9 9 9
13 13 13 13 13 13 13 13 12 12 12 12 11 11 10 10 10 10 9 9 9 9 9 8 8 8 8 8 8 8 8 8 8 8 8 8 8 9 9 9 9 9 9 9
14 13 13 13 13 13 13 13 12 12 12 12 11 11 11 10 10 10 10 9 9 9 9 9 9 8 8 8 8 8 8 8 8 8 8 8 9 9 9 9 9 9 9 10
14 13 13 13 13 13 13 13 13 12 12 12 12 11 11 11 11 10 10 10 10 9 9 9 9 9 9 8 8 8 8 8 9 9 9 9 9 9 9 9 9 10 10 10
14 13 13 13 13 13 13 13 13 13 13 12 12 12 12 11 11 11 11 10 10 10 10 10 10 9 9 9 9 9 9 9 9 9 9 9 9 9 9 10 10 10 10 10
Wind_Speed
1 1 2 3 3 2 2 3 4 3 2 2 4 5 7 8 10 10 10 10 9 7 5 4 4 3 3 2 2 3 4 4 4 4 4 5 5 6 6 7 7 6 6 7
3 3 6 6 7 5 3 2 1 1 2 1 3 5 6 9 11 11 11 11 9 8 7 5 5 4 3 2 2 3 4 4 4 4 5 5 5 6 7 7 7 7 7 7
0 2 3 4 5 4 3 3 1 0 1 2 4 6 7 8 9 9 10 10 10 8 7 5 4 4 3 3 2 3 4 3 4 4 5 5 5 6 7 6 7 7 7 7
2 3 2 1 1 2 3 4 4 2 2 3 4 3 4 5 7 7 8 8 8 6 5 4 4 4 3 3 3 3 3 3 3 4 4 5 6 6 6 5 6 5 7 7
3 3 1 1 2 1 0 2 3 3 4 5 6 5 4 3 5 6 6 6 6 5 5 5 5 5 5 4 3 4 3 3 3 3 4 4 5 5 5 5 6 5 5 7
4 3 1 2 5 3 2 1 1 2 4 4 3 2 1 3 5 6 6 6 6 5 5 5 5 6 6 4 3 3 2 2 3 3 4 4 4 4 3 4 5 5 7 7
3 2 1 4 6 1 1 3 2 2 3 3 2 2 4 5 5 6 7 7 7 6 5 5 5 6 5 4 2 2 3 4 4 4 3 3 3 3 4 4 5 6 7 7
3 2 1 5 4 2 2 1 1 2 3 4 4 6 6 6 7 8 7 6 6 6 5 4 5 6 5 3 2 3 4 5 4 4 4 4 4 4 4 4 6 6 6 6
3 3 3 3 1 2 2 2 1 3 4 7 6 6 6 6 7 7 7 6 5 6 5 4 4 5 5 3 4 5 5 5 4 5 5 4 4 3 3 4 4 4 4 4
2 1 2 3 2 2 1 2 2 4 6 6 7 7 7 7 6 6 5 5 5 6 5 4 3 4 4 4 5 6 6 4 4 4 4 4 4 3 3 2 3 3 3 3
2 1 2 4 2 2 4 5 6 5 4 6 8 7 7 6 6 5 4 4 5 5 5 4 3 3 4 5 6 6 5 4 4 4 3 4 4 3 2 1 0 1 1 1
3 4 3 2 1 2 4 4 5 6 5 5 6 7 7 6 5 5 5 5 5 5 4 4 4 4 4 5 6 6 5 3 3 3 2 3 3 4 7 5 5 3 2 1
3 2 3 2 1 2 4 4 4 6 6 6 5 7 7 6 5 5 5 6 6 5 4 4 4 4 4 5 5 5 4 3 2 2 2 2 2 2 2 4 6 6 5 3
2 3 2 1 2 3 5 5 6 6 6 6 6 6 7 6 5 6 6 5 5 5 5 5 5 4 4 5 5 5 4 3 3 2 1 1 1 1 1 1 1 3 4 4
1 2 3 2 4 5 5 6 7 6 5 5 5 6 6 6 6 5 5 6 6 5 5 5 5 3 3 5 5 5 4 2 2 2 1 1 1 1 1 0 0 1 2 3
2 4 4 5 5 5 5 6 6 5 5 5 5 5 6 6 6 5 5 6 6 6 5 5 5 4 4 5 5 4 3 4 3 2 1 1 1 1 1 1 1 1 1 2
4 3 3 4 4 4 5 6 7 7 6 6 6 6 6 6 6 5 4 4 5 5 5 5 5 4 5 5 5 3 3 2 3 2 1 2 2 2 2 2 2 2 2 3
5 5 6 7 7 6 5 5 6 7 7 7 7 7 7 7 7 6 5 5 4 3 3 5 5 4 5 5 4 4 3 2 2 2 2 2 2 2 2 3 3 3 3 3
2 3 4 5 6 7 6 6 6 7 7 8 8 8 7 7 7 6 5 6 6 5 5 5 7 6 5 6 5 4 3 3 2 2 2 2 2 2 2 3 3 3 3 3
2 2 3 3 4 5 5 5 5 6 7 8 8 7 6 6 6 6 6 6 6 6 5 6 6 5 5 6 6 4 4 4 3 3 2 2 2 3 3 3 4 4 4 4
1 2 3 4 4 4 5 6 6 7 7 8 9 9 8 7 7 7 6 5 5 5 5 7 6 5 6 6 6 4 4 4 4 3 3 3 3 3 4 4 4 4 4 5
1 2 2 3 3 3 4 5 6 7 7 8 8 7 7 6 7 6 6 6 6 7 6 5 5 7 8 7 5 5 5 5 4 4 3 4 4 4 4 4 4 5 5 5
1 2 2 3 4 3 3 4 6 7 8 9 9 9 8 8 7 7 6 6 5 8 7 6 8 11 11 7 5 6 6 6 5 5 5 5 5 5 5 6 5 5 5 5
1 1 2 2 3 3 3 4 5 6 7 7 8 9 8 7 6 7 6 7 10 10 8 9 12 13 11 6 6 6 6 6 6 6 6 6 6 6 6 6 6 6 6 7
1 1 1 2 2 3 5 4 4 4 5 5 6 7 7 7 8 7 7 7 10 10 8 10 13 13 9 7 8 8 7 7 7 7 7 7 7 7 7 7 7 7 7 7
1 1 2 3 4 3 3 4 4 4 5 5 5 6 6 6 7 6 6 8 9 10 9 8 8 10 9 9 9 9 9 8 9 9 8 8 8 8 8 8 10 8 8 8
0 0 0 1 2 2 3 4 4 5 6 7 6 6 7 7 7 8 8 8 8 8 9 8 8 9 9 10 10 10 9 9 9 9 9 9 9 9 9 10 9 9 10 10
Wind_Direction
137 159 117 72 29 61 122 173 183 233 205 212 188 175 159 149 144 146 151 152 154 154 150 143 136 125 110 88 65 66 69 59 44 35 37 36 32 25 23 25 26 25 31 31
57 74 88 63 30 37 44 45 60 69 14 23 115 123 140 153 157 160 161 159 156 156 157 162 157 144 123 99 79 80 77 64 53 48 45 41 34 30 30 28 26 32 33 34
108 309 74 36 1 20 39 19 40 58 268 120 127 145 157 162 162 164 165 160 160 162 166 167 158 145 134 123 108 93 83 72 60 59 53 41 39 37 31 27 32 34 30 34
88 74 99 245 33 63 78 39 29 68 101 118 123 106 105 133 147 151 154 155 159 158 152 142 131 124 119 115 112 101 86 77 68 66 59 47 43 36 27 27 34 32 29 30
97 93 80 358 13 360 73 23 21 92 104 96 102 77 58 92 130 144 147 149 149 146 141 137 132 131 120 109 106 97 85 77 74 78 72 58 46 33 25 34 39 36 31 32
97 103 169 285 317 317 133 8 352 129 141 139 113 109 192 139 122 123 122 129 131 128 123 129 132 128 121 114 106 103 97 86 78 79 79 68 54 41 32 45 47 47 43 34
95 110 313 312 313 12 94 275 285 159 159 148 138 172 148 128 116 119 120 122 125 123 123 133 136 130 125 120 116 106 102 92 79 73 72 73 59 47 52 56 54 50 48 38
100 95 278 329 11 78 224 270 109 134 132 122 119 116 120 118 117 119 115 114 118 119 116 120 136 133 129 129 118 100 94 87 76 67 66 74 70 57 52 57 60 48 45 38
158 191 258 305 310 294 179 145 140 138 135 131 126 126 122 119 118 118 119 117 116 123 118 110 124 135 138 137 119 106 95 86 75 65 59 63 73 70 57 53 61 53 50 44
81 15 337 352 3 13 71 126 129 136 140 136 134 132 125 124 121 119 120 121 121 121 121 114 111 122 136 135 124 113 103 92 82 74 62 55 56 59 69 65 67 64 58 45
62 304 30 9 13 73 75 89 101 106 122 138 134 132 132 131 129 130 128 125 129 132 132 129 121 117 127 132 125 115 108 100 87 77 76 68 58 44 50 36 40 109 85 67
204 221 179 232 241 116 111 116 124 115 104 116 133 133 131 134 135 135 135 130 130 132 132 128 124 122 124 131 131 126 118 111 102 96 84 84 82 58 46 49 53 75 92 90
193 182 168 179 126 112 126 132 126 122 130 126 121 129 132 134 135 135 136 137 142 145 138 131 129 128 132 136 136 135 136 135 124 117 108 93 86 82 53 27 43 48 44 40
155 116 103 118 135 122 124 120 110 106 112 121 125 126 126 124 129 138 149 154 147 139 136 137 136 138 143 142 140 139 138 142 140 136 124 114 114 107 99 69 17 353 1 3
69 132 160 139 114 114 117 117 115 116 117 114 123 131 134 138 144 149 148 140 133 134 140 143 144 153 153 145 142 143 143 149 145 137 139 139 126 123 117 86 328 319 334 342
80 86 108 121 131 135 134 137 143 150 145 144 145 148 149 148 144 140 141 142 143 155 162 158 164 171 157 146 141 143 157 168 159 152 153 152 147 160 198 237 271 282 290 301
121 122 128 140 158 166 171 173 170 167 163 166 167 156 142 136 135 145 156 162 165 170 171 172 179 172 159 154 150 155 159 164 163 163 191 206 213 225 232 241 253 263 265 260
178 183 183 178 177 178 179 175 174 174 176 174 157 149 153 159 169 180 176 158 150 163 191 191 183 169 163 163 157 156 160 167 183 205 221 221 226 227 224 233 245 254 266 267
150 171 181 181 178 175 178 182 186 185 174 160 159 167 174 178 180 178 163 157 168 193 213 199 183 176 178 179 166 166 173 184 202 222 225 233 238 244 237 235 244 251 258 263
136 162 167 172 170 171 181 183 177 173 171 164 162 164 173 183 178 170 168 183 202 205 197 183 181 188 194 190 179 182 191 199 210 223 227 236 248 258 256 253 255 256 255 256
141 149 160 167 179 188 185 176 171 176 174 170 173 182 188 187 177 169 172 205 230 207 191 188 189 195 198 194 188 191 198 205 215 223 226 234 246 256 260 258 258 257 255 255
169 171 182 177 174 190 190 175 172 171 170 177 183 182 178 182 182 184 200 213 217 194 188 195 201 205 202 194 194 200 206 211 218 223 229 234 241 251 260 261 259 259 257 255
203 189 184 186 189 192 173 172 176 176 181 187 188 188 191 194 188 189 218 226 208 199 197 208 211 209 204 198 202 208 212 215 221 226 232 238 243 248 255 261 260 259 260 259
201 202 200 183 150 149 179 200 189 190 192 194 197 196 190 191 206 216 221 213 203 201 209 215 214 213 206 208 211 217 221 225 228 232 237 243 246 248 250 254 260 261 259 259
196 183 150 142 170 207 214 196 181 189 191 203 210 205 200 198 206 215 211 213 210 207 217 220 217 214 211 215 218 222 226 230 233 234 237 241 246 250 251 253 254 257 259 257
190 206 216 217 217 218 201 183 191 201 198 210 224 219 213 212 214 211 209 214 212 210 216 222 216 213 215 219 223 226 228 233 236 237 239 241 246 247 250 252 254 254 255 255
307 226 231 269 256 214 197 195 204 212 209 211 224 224 216 214 214 216 217 219 217 217 221 223 220 217 218 222 226 228 230 231 233 236 239 242 244 247 249 249 252 253 254 256
Height
1507 1505 1506 1508 1509 1508 1511 1513 1517 1515 1514 1513 1514 1515 1518 1521 1523 1527 1529 1532 1535 1538 1540 1542 1543 1544 1545 1545 1545 1545 1545 1545 1544 1543 1543 1542 1542 1541 1540 1539 1537 1536 1534 1533
1510 1507 1507 1511 1511 1510 1511 1511 1513 1513 1515 1513 1514 1516 1518 1520 1523 1526 1529 1531 1534 1537 1540 1541 1543 1544 1545 1546 1546 1546 1546 1546 1545 1544 1544 1544 1543 1542 1541 1540 1539 1538 1537 1536
1517 1511 1510 1519 1517 1515 1514 1514 1514 1516 1517 1515 1516 1517 1518 1520 1523 1526 1528 1530 1533 1536 1539 1541 1543 1544 1545 1546 1547 1547 1547 1547 1546 1546 1546 1545 1545 1544 1544 1543 1542 1540 1539 1538
1520 1516 1525 1523 1515 1515 1516 1516 1515 1515 1516 1516 1517 1519 1520 1522 1524 1526 1528 1531 1534 1536 1539 1541 1543 1545 1546 1547 1548 1548 1548 1548 1548 1548 1547 1547 1547 1546 1546 1545 1544 1543 1542 1541
1525 1524 1523 1519 1516 1516 1518 1519 1517 1517 1518 1519 1519 1521 1523 1524 1525 1527 1530 1532 1535 1537 1539 1541 1543 1545 1547 1548 1549 1549 1549 1549 1549 1549 1549 1549 1549 1548 1548 1547 1547 1546 1545 1544
1523 1524 1527 1523 1516 1514 1517 1521 1519 1518 1519 1519 1520 1524 1526 1525 1527 1529 1531 1533 1535 1537 1540 1542 1544 1545 1547 1548 1549 1550 1550 1551 1551 1551 1551 1551 1551 1551 1550 1550 1549 1548 1548 1547
1525 1526 1525 1520 1516 1516 1524 1524 1519 1518 1518 1519 1521 1523 1524 1526 1528 1530 1532 1534 1537 1539 1541 1543 1544 1546 1548 1549 1550 1551 1552 1552 1552 1553 1553 1553 1553 1553 1553 1552 1552 1551 1551 1550
1528 1529 1530 1520 1517 1520 1522 1518 1518 1518 1519 1520 1521 1522 1525 1527 1529 1531 1533 1536 1538 1540 1542 1544 1546 1547 1548 1550 1551 1552 1553 1554 1554 1555 1555 1555 1555 1555 1555 1555 1555 1554 1554 1554
1527 1529 1523 1520 1520 1519 1519 1519 1519 1519 1520 1521 1522 1524 1526 1528 1531 1533 1535 1537 1539 1541 1543 1545 1547 1548 1550 1551 1552 1553 1554 1555 1556 1556 1557 1557 1557 1557 1557 1557 1557 1557 1557 1556
1524 1523 1522 1521 1520 1520 1519 1520 1520 1520 1521 1522 1523 1525 1527 1530 1532 1534 1536 1538 1540 1542 1544 1546 1548 1549 1551 1552 1554 1555 1556 1557 1557 1558 1559 1559 1559 1559 1559 1559 1559 1559 1559 1559
1524 1523 1522 1522 1521 1521 1521 1521 1521 1521 1522 1523 1525 1527 1529 1531 1534 1536 1538 1540 1542 1544 1545 1547 1549 1550 1552 1553 1555 1556 1557 1558 1559 1560 1561 1561 1561 1562 1562 1562 1562 1562 1562 1562
1525 1522 1523 1523 1522 1522 1522 1522 1522 1523 1524 1525 1527 1528 1530 1533 1535 1537 1539 1541 1543 1545 1547 1548 1550 1551 1553 1554 1556 1557 1558 1560 1560 1561 1563 1563 1564 1564 1564 1564 1564 1564 1564 1564
1521 1521 1522 1523 1523 1524 1524 1524 1524 1525 1526 1527 1529 1530 1532 1534 1536 1539 1541 1543 1544 1546 1548 1550 1551 1553 1554 1556 1557 1559 1560 1561 1562 1563 1564 1565 1565 1566 1566 1566 1566 1566 1566 1566
1521 1522 1523 1523 1524 1525 1525 1526 1526 1527 1528 1529 1531 1532 1534 1536 1538 1540 1542 1544 1546 1548 1549 1551 1553 1554 1556 1557 1559 1560 1562 1563 1564 1565 1566 1567 1567 1567 1567 1567 1567 1568 1568 1568
1522 1523 1523 1524 1525 1525 1526 1527 1528 1528 1530 1531 1533 1534 1536 1537 1539 1541 1543 1545 1547 1549 1551 1553 1554 1556 1558 1559 1560 1562 1563 1564 1566 1567 1567 1568 1568 1568 1568 1569 1569 1569 1569 1569
1523 1523 1524 1524 1525 1526 1527 1528 1528 1530 1531 1532 1534 1535 1537 1539 1541 1543 1545 1546 1548 1550 1552 1554 1555 1557 1559 1560 1562 1563 1564 1566 1567 1568 1569 1569 1569 1570 1570 1570 1570 1570 1570 1570
1523 1523 1524 1524 1525 1526 1527 1528 1529 1530 1532 1533 1535 1537 1538 1540 1542 1544 1546 1547 1549 1551 1553 1555 1556 1558 1560 1561 1563 1564 1565 1566 1568 1569 1569 1570 1570 1570 1571 1570 1570 1570 1571 1571
1523 1523 1524 1525 1525 1526 1527 1529 1530 1531 1532 1534 1536 1538 1539 1541 1543 1545 1546 1548 1550 1552 1553 1555 1557 1558 1560 1561 1563 1564 1566 1567 1568 1569 1570 1570 1571 1571 1571 1571 1571 1571 1571 1571
1523 1524 1524 1525 1526 1527 1527 1528 1530 1531 1533 1534 1536 1538 1539 1541 1543 1545 1547 1548 1550 1552 1554 1555 1557 1558 1560 1562 1563 1565 1566 1567 1568 1569 1570 1570 1571 1571 1571 1571 1570 1570 1570 1570
1523 1524 1524 1525 1526 1527 1527 1528 1530 1531 1532 1534 1536 1538 1539 1541 1543 1545 1547 1548 1550 1551 1553 1555 1556 1558 1560 1561 1563 1564 1566 1566 1567 1568 1569 1570 1570 1570 1570 1570 1570 1570 1570 1570
1524 1524 1524 1525 1526 1527 1527 1528 1529 1531 1532 1534 1535 1537 1539 1541 1543 1544 1546 1547 1549 1551 1552 1554 1555 1557 1559 1560 1562 1563 1564 1565 1566 1567 1568 1568 1569 1569 1569 1569 1569 1569 1569 1569
1524 1524 1525 1525 1526 1527 1527 1528 1529 1531 1532 1533 1535 1537 1538 1540 1542 1543 1545 1546 1548 1550 1551 1552 1554 1555 1557 1559 1560 1561 1562 1563 1564 1565 1566 1567 1567 1567 1567 1567 1567 1567 1567 1567
1524 1524 1525 1525 1526 1527 1527 1528 1529 1530 1531 1533 1534 1535 1537 1538 1540 1542 1543 1545 1546 1548 1549 1550 1552 1554 1555 1556 1557 1559 1560 1561 1562 1563 1564 1564 1565 1565 1565 1565 1565 1565 1565 1565
1523 1524 1524 1525 1526 1526 1527 1527 1528 1529 1531 1532 1533 1534 1535 1537 1538 1540 1541 1543 1544 1545 1547 1548 1549 1551 1552 1553 1554 1555 1556 1557 1559 1560 1560 1561 1561 1562 1562 1562 1562 1562 1562 1562
1523 1524 1524 1524 1525 1525 1526 1526 1527 1528 1529 1530 1531 1533 1534 1535 1536 1537 1539 1540 1541 1543 1544 1545 1546 1548 1548 1549 1550 1551 1552 1553 1554 1555 1556 1557 1557 1557 1558 1558 1558 1558 1558 1558
1523 1523 1523 1524 1524 1524 1525 1525 1526 1526 1527 1528 1529 1530 1531 1532 1533 1535 1536 1537 1538 1539 1540 1541 1543 1544 1544 1545 1546 1547 1548 1549 1550 1550 1551 1552 1552 1553 1553 1553 1553 1553 1554 1554
1522 1522 1523 1523 1523 1523 1523 1524 1524 1525 1525 1526 1526 1527 1528 1529 1530 1531 1532 1533 1534 1535 1536 1537 1538 1539 1540 1540 1541 1542 1542 1543 1544 1545 1545 1546 1546 1547 1547 1548 1548 1548 1548 1548